When you browse on this site, cookies collect data to enhance your experience and personalize the content and advertising you see.
Visit our Privacy Policy to learn more. By continuing to use the site, you agree to this use of cookies and data.
EN

Hourly Weather Thimphu

Today, 5 July, Sunday

Time Temperature Precipitation Wind Pressure Humidity
00:00 +11°C° 0 mm 1 mps 523 mmHg 90%
01:00 +11°C° 0 mm 1 mps 522 mmHg 89%
02:00 +11°C° 0 mm 1 mps 522 mmHg 89%
03:00 +11°C° 0 mm 1 mps 522 mmHg 89%
04:00 +11°C° 0 mm 1 mps 522 mmHg 88%
05:00 +11°C° 0 mm 1 mps 522 mmHg 87%
06:00 +12°C° 0 mm 1 mps 523 mmHg 88%
07:00 +14°C° 0 mm 1 mps 525 mmHg 80%
08:00 +18°C° 0 mm 1 mps 526 mmHg 72%
09:00 +19°C° 0 mm 2 mps 527 mmHg 63%
10:00 +19°C° 0.2 mm 2 mps 527 mmHg 65%
11:00 +20°C° 0.2 mm 2 mps 527 mmHg 66%
12:00 +19°C° 0 mm 3 mps 526 mmHg 70%
13:00 +19°C° 0.8 mm 2 mps 526 mmHg 75%
14:00 +18°C° 0.8 mm 2 mps 525 mmHg 80%
15:00 +18°C° 0.8 mm 2 mps 524 mmHg 84%
16:00 +17°C° 0.8 mm 2 mps 524 mmHg 87%
17:00 +16°C° 0.8 mm 1 mps 523 mmHg 90%
18:00 +15°C° 0.8 mm 1 mps 523 mmHg 93%
19:00 +15°C° 0.4 mm 1 mps 523 mmHg 94%
20:00 +13°C° 0.4 mm 0 mps 523 mmHg 95%
21:00 +12°C° 0.4 mm 0 mps 523 mmHg 96%
22:00 +12°C° 0.1 mm 0 mps 523 mmHg 96%
23:00 +11°C° 0.1 mm 0 mps 523 mmHg 96%

Tomorrow, 6 July, Monday

Time Temperature Precipitation Wind Pressure Humidity
00:00 +11°C° 0.1 mm 0 mps 523 mmHg 96%
01:00 +11°C° 0 mm 0 mps 523 mmHg 95%
02:00 +11°C° 0 mm 0 mps 522 mmHg 95%
03:00 +10°C° 0 mm 0 mps 522 mmHg 94%
04:00 +11°C° 0 mm 0 mps 522 mmHg 93%
05:00 +11°C° 0 mm 0 mps 523 mmHg 92%
06:00 +12°C° 0 mm 1 mps 523 mmHg 91%
07:00 +14°C° 0.1 mm 1 mps 524 mmHg 88%
08:00 +15°C° 0.1 mm 1 mps 525 mmHg 85%
09:00 +16°C° 0.1 mm 1 mps 526 mmHg 81%
10:00 +18°C° 0.4 mm 1 mps 526 mmHg 80%
11:00 +18°C° 0.4 mm 1 mps 526 mmHg 79%
12:00 +18°C° 0.4 mm 1 mps 526 mmHg 77%
13:00 +19°C° 0.3 mm 1 mps 526 mmHg 75%
14:00 +19°C° 0.3 mm 2 mps 526 mmHg 72%
15:00 +20°C° 0.3 mm 2 mps 526 mmHg 70%
16:00 +18°C° 0.6 mm 2 mps 525 mmHg 77%
17:00 +18°C° 0.6 mm 1 mps 525 mmHg 85%
18:00 +16°C° 0.6 mm 1 mps 524 mmHg 92%
19:00 +15°C° 0.5 mm 1 mps 524 mmHg 93%
20:00 +15°C° 0.5 mm 1 mps 524 mmHg 95%
21:00 +13°C° 0.5 mm 0 mps 525 mmHg 96%
22:00 +13°C° 0.9 mm 0 mps 525 mmHg 96%
23:00 +12°C° 0.9 mm 0 mps 525 mmHg 96%

Day after tomorrow, 7 July, Tuesday

Time Temperature Precipitation Wind Pressure Humidity
00:00 +12°C° 0.9 mm 0 mps 525 mmHg 96%
01:00 +12°C° 1 mm 0 mps 525 mmHg 96%
02:00 +12°C° 1 mm 0 mps 524 mmHg 96%
03:00 +12°C° 1 mm 0 mps 524 mmHg 96%
04:00 +12°C° 0.9 mm 0 mps 525 mmHg 97%
05:00 +12°C° 0.9 mm 0 mps 525 mmHg 97%
06:00 +12°C° 0.9 mm 0 mps 525 mmHg 97%
07:00 +13°C° 1.2 mm 0 mps 526 mmHg 96%
08:00 +13°C° 1.2 mm 0 mps 526 mmHg 96%
09:00 +13°C° 1.2 mm 0 mps 526 mmHg 95%
10:00 +15°C° 0.7 mm 0 mps 527 mmHg 90%
11:00 +18°C° 0.7 mm 1 mps 527 mmHg 85%
12:00 +19°C° 0.7 mm 1 mps 528 mmHg 81%
13:00 +20°C° 0.3 mm 1 mps 528 mmHg 78%
14:00 +20°C° 0.3 mm 1 mps 527 mmHg 75%
15:00 +20°C° 0.3 mm 2 mps 527 mmHg 72%
16:00 +19°C° 0.4 mm 2 mps 526 mmHg 79%
17:00 +19°C° 0.4 mm 1 mps 526 mmHg 86%
18:00 +18°C° 0.4 mm 1 mps 525 mmHg 92%
19:00 +16°C° 0.4 mm 1 mps 525 mmHg 94%
20:00 +15°C° 0.4 mm 1 mps 525 mmHg 96%
21:00 +14°C° 0.4 mm 1 mps 525 mmHg 98%
22:00 +13°C° 0.3 mm 0 mps 525 mmHg 98%
23:00 +13°C° 0.3 mm 0 mps 525 mmHg 98%

8 July, Wednesday

Time Temperature Precipitation Wind Pressure Humidity
00:00 +13°C° 0.3 mm 0 mps 525 mmHg 98%
01:00 +12°C° 0.1 mm 0 mps 525 mmHg 98%
02:00 +12°C° 0.1 mm 0 mps 525 mmHg 97%
03:00 +12°C° 0.1 mm 0 mps 524 mmHg 97%
04:00 +12°C° 0.1 mm 0 mps 524 mmHg 96%
05:00 +12°C° 0.1 mm 0 mps 524 mmHg 95%
06:00 +12°C° 0.1 mm 0 mps 525 mmHg 94%
07:00 +13°C° 0.8 mm 0 mps 525 mmHg 92%
08:00 +15°C° 0.8 mm 1 mps 526 mmHg 91%
09:00 +15°C° 0.8 mm 1 mps 527 mmHg 90%
10:00 +18°C° 0.4 mm 1 mps 528 mmHg 84%
11:00 +19°C° 0.4 mm 1 mps 528 mmHg 77%
12:00 +21°C° 0.4 mm 1 mps 529 mmHg 71%
13:00 +20°C° 0.4 mm 2 mps 528 mmHg 73%
14:00 +19°C° 0.4 mm 2 mps 527 mmHg 75%
15:00 +19°C° 0.4 mm 2 mps 526 mmHg 76%
16:00 +18°C° 0.5 mm 2 mps 526 mmHg 81%
17:00 +17°C° 0.5 mm 2 mps 525 mmHg 86%
18:00 +16°C° 0.5 mm 2 mps 524 mmHg 92%
19:00 +15°C° 0.2 mm 1 mps 524 mmHg 94%
20:00 +14°C° 0.2 mm 1 mps 524 mmHg 96%
21:00 +13°C° 0.2 mm 1 mps 524 mmHg 98%
22:00 +13°C° 0.1 mm 1 mps 524 mmHg 97%
23:00 +13°C° 0.1 mm 1 mps 524 mmHg 97%

9 July, Thursday

Time Temperature Precipitation Wind Pressure Humidity
00:00 +13°C° 0.1 mm 1 mps 524 mmHg 96%
01:00 +11°C° 0 mm 0 mps 523 mmHg 96%
02:00 +11°C° 0 mm 0 mps 523 mmHg 96%
03:00 +11°C° 0 mm 0 mps 522 mmHg 97%
04:00 +11°C° 0 mm 0 mps 523 mmHg 95%
05:00 +11°C° 0 mm 0 mps 523 mmHg 94%
06:00 +12°C° 0 mm 0 mps 523 mmHg 93%
07:00 +13°C° 0 mm 0 mps 524 mmHg 88%
08:00 +16°C° 0 mm 1 mps 525 mmHg 83%
09:00 +18°C° 0 mm 1 mps 526 mmHg 77%
10:00 +19°C° 0.3 mm 1 mps 526 mmHg 76%
11:00 +19°C° 0.3 mm 2 mps 526 mmHg 74%
12:00 +20°C° 0.3 mm 2 mps 526 mmHg 72%
13:00 +19°C° 0.8 mm 2 mps 525 mmHg 78%
14:00 +18°C° 0.8 mm 2 mps 524 mmHg 83%
15:00 +17°C° 0.8 mm 2 mps 523 mmHg 88%
16:00 +16°C° 0.7 mm 2 mps 523 mmHg 91%
17:00 +16°C° 0.7 mm 1 mps 523 mmHg 93%
18:00 +15°C° 0.7 mm 1 mps 522 mmHg 96%
19:00 +14°C° 0.3 mm 1 mps 522 mmHg 97%
20:00 +14°C° 0.3 mm 1 mps 522 mmHg 97%
21:00 +13°C° 0.3 mm 0 mps 522 mmHg 98%
22:00 +13°C° 0.4 mm 0 mps 522 mmHg 98%
23:00 +13°C° 0.4 mm 0 mps 522 mmHg 98%

10 July, Friday

Time Temperature Precipitation Wind Pressure Humidity
00:00 +13°C° 0.4 mm 0 mps 523 mmHg 99%
01:00 +13°C° 0.9 mm 0 mps 522 mmHg 99%
02:00 +13°C° 0.9 mm 0 mps 522 mmHg 99%
03:00 +13°C° 0.9 mm 0 mps 521 mmHg 99%
04:00 +13°C° 0.3 mm 0 mps 521 mmHg 98%
05:00 +13°C° 0.3 mm 0 mps 521 mmHg 98%
06:00 +13°C° 0.3 mm 0 mps 522 mmHg 98%
07:00 +13°C° 0.6 mm 0 mps 522 mmHg 97%
08:00 +13°C° 0.6 mm 0 mps 522 mmHg 97%
09:00 +14°C° 0.6 mm 1 mps 522 mmHg 97%
10:00 +15°C° 0.3 mm 1 mps 522 mmHg 96%
11:00 +15°C° 0.3 mm 1 mps 522 mmHg 95%
12:00 +15°C° 0.3 mm 1 mps 522 mmHg 93%
13:00 +15°C° 0.4 mm 1 mps 522 mmHg 94%
14:00 +15°C° 0.4 mm 1 mps 521 mmHg 95%
15:00 +15°C° 0.4 mm 1 mps 521 mmHg 95%
16:00 +15°C° 0.3 mm 1 mps 521 mmHg 96%
17:00 +14°C° 0.3 mm 1 mps 520 mmHg 97%
18:00 +13°C° 0.3 mm 0 mps 520 mmHg 98%
19:00 +13°C° 0.3 mm 0 mps 521 mmHg 98%
20:00 +13°C° 0.3 mm 0 mps 521 mmHg 98%
21:00 +13°C° 0.3 mm 0 mps 521 mmHg 98%
22:00 +13°C° 0.5 mm 0 mps 521 mmHg 98%
23:00 +13°C° 0.5 mm 0 mps 521 mmHg 98%
Show more